When you browse on this site, cookies collect data to enhance your experience and personalize the content and advertising you see.
Visit our Privacy Policy to learn more. By continuing to use the site, you agree to this use of cookies and data.
  • In Hungary
  • List of Countries
  • For 7 days
  • Water Temperature
  • Weather Map
  • News
  • Weather Widgets
  • user-avatar
    Login

    Hourly Weather Nesterovo

    Today, 25 February, Tuesday

    Time Temperature Precipitation Wind Pressure Humidity
    00:00 -2°C° 0 mm 3 mps 732 mmHg 77%
    01:00 -3°C° 0 mm 4 mps 732 mmHg 78%
    02:00 -3°C° 0 mm 4 mps 733 mmHg 79%
    03:00 -2°C° 0 mm 3 mps 733 mmHg 80%
    04:00 -4°C° 0 mm 3 mps 733 mmHg 82%
    05:00 -4°C° 0 mm 3 mps 733 mmHg 83%
    06:00 -4°C° 0 mm 3 mps 733 mmHg 82%
    07:00 -4°C° 0 mm 3 mps 733 mmHg 81%
    08:00 -4°C° 0 mm 3 mps 733 mmHg 80%
    09:00 -2°C° 0 mm 3 mps 733 mmHg 73%
    10:00 -1°C° 0 mm 3 mps 733 mmHg 65%
    11:00 0°C° 0 mm 3 mps 733 mmHg 58%
    12:00 +1°C° 0 mm 3 mps 733 mmHg 55%
    13:00 +1°C° 0 mm 3 mps 733 mmHg 51%
    14:00 +2°C° 0 mm 3 mps 733 mmHg 48%
    15:00 +1°C° 0 mm 3 mps 733 mmHg 54%
    16:00 +1°C° 0 mm 2 mps 732 mmHg 60%
    17:00 -1°C° 0 mm 2 mps 732 mmHg 66%
    18:00 -1°C° 0 mm 2 mps 732 mmHg 68%
    19:00 -2°C° 0 mm 2 mps 732 mmHg 70%
    20:00 -2°C° 0 mm 2 mps 732 mmHg 72%
    21:00 -2°C° 0 mm 2 mps 731 mmHg 73%
    22:00 -1°C° 0 mm 3 mps 731 mmHg 74%
    23:00 -1°C° 0 mm 3 mps 730 mmHg 75%

    Tomorrow, 26 February, Wednesday

    Time Temperature Precipitation Wind Pressure Humidity
    00:00 -2°C° 0.1 mm 4 mps 729 mmHg 80%
    01:00 -2°C° 0.1 mm 4 mps 729 mmHg 86%
    02:00 -2°C° 0.1 mm 5 mps 728 mmHg 91%
    03:00 -2°C° 0.2 mm 4 mps 727 mmHg 93%
    04:00 -1°C° 0.2 mm 4 mps 726 mmHg 95%
    05:00 -1°C° 0.2 mm 4 mps 726 mmHg 97%
    06:00 0°C° 0.3 mm 4 mps 725 mmHg 96%
    07:00 0°C° 0.3 mm 4 mps 725 mmHg 96%
    08:00 +1°C° 0.3 mm 4 mps 725 mmHg 96%
    09:00 +1°C° 0.8 mm 4 mps 724 mmHg 96%
    10:00 +1°C° 0.8 mm 4 mps 724 mmHg 97%
    11:00 +2°C° 0.8 mm 3 mps 724 mmHg 97%
    12:00 +1°C° 0.6 mm 3 mps 724 mmHg 97%
    13:00 +1°C° 0.6 mm 3 mps 724 mmHg 97%
    14:00 +2°C° 0.6 mm 2 mps 725 mmHg 97%
    15:00 +2°C° 0 mm 2 mps 725 mmHg 97%
    16:00 +2°C° 0 mm 2 mps 725 mmHg 97%
    17:00 +2°C° 0 mm 2 mps 725 mmHg 96%
    18:00 +2°C° 0 mm 1 mps 726 mmHg 96%
    19:00 +1°C° 0 mm 1 mps 726 mmHg 95%
    20:00 +1°C° 0 mm 1 mps 726 mmHg 95%
    21:00 +1°C° 0 mm 1 mps 726 mmHg 95%
    22:00 +1°C° 0 mm 1 mps 726 mmHg 94%
    23:00 +1°C° 0 mm 1 mps 726 mmHg 94%

    Day after tomorrow, 27 February, Thursday

    Time Temperature Precipitation Wind Pressure Humidity
    00:00 +1°C° 0 mm 1 mps 726 mmHg 94%
    01:00 +1°C° 0 mm 1 mps 726 mmHg 93%
    02:00 +1°C° 0 mm 1 mps 726 mmHg 92%
    03:00 +1°C° 0 mm 1 mps 726 mmHg 93%
    04:00 +1°C° 0 mm 1 mps 726 mmHg 93%
    05:00 +1°C° 0 mm 1 mps 725 mmHg 93%
    06:00 +1°C° 0 mm 1 mps 725 mmHg 93%
    07:00 +1°C° 0 mm 1 mps 725 mmHg 93%
    08:00 +1°C° 0 mm 1 mps 725 mmHg 93%
    09:00 +2°C° 0.2 mm 1 mps 725 mmHg 93%
    10:00 +2°C° 0.2 mm 1 mps 725 mmHg 94%
    11:00 +2°C° 0.2 mm 1 mps 725 mmHg 95%
    12:00 +2°C° 0.2 mm 1 mps 724 mmHg 96%
    13:00 +2°C° 0.2 mm 1 mps 724 mmHg 96%
    14:00 +1°C° 0.2 mm 0 mps 724 mmHg 97%
    15:00 +1°C° 0.1 mm 2 mps 724 mmHg 96%
    16:00 0°C° 0.1 mm 3 mps 724 mmHg 94%
    17:00 -1°C° 0.1 mm 4 mps 724 mmHg 93%
    18:00 -1°C° 0 mm 3 mps 725 mmHg 91%
    19:00 -1°C° 0 mm 3 mps 725 mmHg 89%
    20:00 -2°C° 0 mm 3 mps 725 mmHg 87%
    21:00 -2°C° 0 mm 3 mps 726 mmHg 89%
    22:00 -2°C° 0 mm 3 mps 726 mmHg 91%
    23:00 -2°C° 0 mm 3 mps 726 mmHg 93%

    28 February, Friday

    Time Temperature Precipitation Wind Pressure Humidity
    00:00 -4°C° 0 mm 3 mps 726 mmHg 93%
    01:00 -4°C° 0 mm 3 mps 726 mmHg 92%
    02:00 -4°C° 0 mm 3 mps 727 mmHg 92%
    03:00 -3°C° 0 mm 2 mps 727 mmHg 92%
    04:00 -3°C° 0 mm 2 mps 727 mmHg 92%
    05:00 -4°C° 0 mm 2 mps 727 mmHg 91%
    06:00 -3°C° 0 mm 2 mps 727 mmHg 89%
    07:00 -4°C° 0 mm 3 mps 728 mmHg 87%
    08:00 -4°C° 0 mm 3 mps 728 mmHg 85%
    09:00 -4°C° 0 mm 3 mps 728 mmHg 81%
    10:00 -2°C° 0 mm 3 mps 728 mmHg 78%
    11:00 -2°C° 0 mm 3 mps 728 mmHg 74%
    12:00 -2°C° 0 mm 3 mps 729 mmHg 73%
    13:00 -2°C° 0 mm 3 mps 729 mmHg 72%
    14:00 -1°C° 0 mm 3 mps 729 mmHg 70%
    15:00 -1°C° 0 mm 3 mps 729 mmHg 72%
    16:00 -2°C° 0 mm 3 mps 730 mmHg 74%
    17:00 -2°C° 0 mm 3 mps 730 mmHg 76%
    18:00 -2°C° 0 mm 3 mps 730 mmHg 76%
    19:00 -4°C° 0 mm 3 mps 731 mmHg 77%
    20:00 -4°C° 0 mm 3 mps 731 mmHg 77%
    21:00 -4°C° 0 mm 3 mps 731 mmHg 78%
    22:00 -4°C° 0 mm 3 mps 731 mmHg 78%
    23:00 -4°C° 0 mm 3 mps 731 mmHg 78%

    29 February, Saturday

    Time Temperature Precipitation Wind Pressure Humidity
    00:00 -4°C° 0 mm 3 mps 732 mmHg 79%
    01:00 -3°C° 0 mm 2 mps 732 mmHg 80%
    02:00 -4°C° 0 mm 2 mps 732 mmHg 80%
    03:00 -4°C° 0 mm 3 mps 732 mmHg 82%
    04:00 -4°C° 0 mm 3 mps 732 mmHg 83%
    05:00 -4°C° 0 mm 3 mps 732 mmHg 85%
    06:00 -4°C° 0.1 mm 3 mps 732 mmHg 85%
    07:00 -4°C° 0.1 mm 4 mps 732 mmHg 86%
    08:00 -3°C° 0.1 mm 4 mps 733 mmHg 86%
    09:00 -3°C° 0 mm 4 mps 733 mmHg 79%
    10:00 -2°C° 0 mm 4 mps 733 mmHg 72%
    11:00 -1°C° 0 mm 3 mps 733 mmHg 65%
    12:00 -1°C° 0 mm 3 mps 733 mmHg 62%
    13:00 0°C° 0 mm 3 mps 733 mmHg 58%
    14:00 0°C° 0 mm 3 mps 734 mmHg 54%
    15:00 -1°C° 0 mm 3 mps 734 mmHg 58%
    16:00 -1°C° 0 mm 2 mps 734 mmHg 61%
    17:00 -2°C° 0 mm 2 mps 734 mmHg 65%
    18:00 -2°C° 0 mm 2 mps 735 mmHg 68%
    19:00 -1°C° 0 mm 1 mps 735 mmHg 70%
    20:00 -1°C° 0 mm 1 mps 736 mmHg 72%
    21:00 -1°C° 0 mm 1 mps 736 mmHg 73%
    22:00 -1°C° 0 mm 1 mps 736 mmHg 74%
    23:00 -3°C° 0 mm 2 mps 736 mmHg 74%

    1 March, Sunday

    Time Temperature Precipitation Wind Pressure Humidity
    00:00 -3°C° 0 mm 2 mps 736 mmHg 74%
    01:00 -4°C° 0 mm 2 mps 736 mmHg 74%
    02:00 -4°C° 0 mm 2 mps 736 mmHg 75%
    03:00 -4°C° 0 mm 2 mps 736 mmHg 75%
    04:00 -4°C° 0 mm 2 mps 737 mmHg 75%
    05:00 -4°C° 0 mm 2 mps 737 mmHg 75%
    06:00 -4°C° 0 mm 2 mps 737 mmHg 74%
    07:00 -4°C° 0 mm 3 mps 737 mmHg 74%
    08:00 -4°C° 0 mm 3 mps 737 mmHg 73%
    09:00 -2°C° 0 mm 3 mps 737 mmHg 71%
    10:00 -1°C° 0 mm 3 mps 737 mmHg 70%
    11:00 0°C° 0 mm 3 mps 738 mmHg 68%
    12:00 0°C° 0 mm 3 mps 737 mmHg 68%
    13:00 0°C° 0 mm 3 mps 737 mmHg 67%
    14:00 +1°C° 0 mm 3 mps 737 mmHg 67%
    15:00 0°C° 0 mm 3 mps 737 mmHg 69%
    16:00 0°C° 0 mm 3 mps 737 mmHg 71%
    17:00 -1°C° 0 mm 3 mps 736 mmHg 74%
    18:00 -1°C° 0 mm 3 mps 736 mmHg 72%
    19:00 -2°C° 0 mm 4 mps 736 mmHg 70%
    20:00 -2°C° 0 mm 4 mps 736 mmHg 68%
    21:00 -2°C° 0.2 mm 5 mps 736 mmHg 76%
    22:00 -2°C° 0.2 mm 5 mps 736 mmHg 84%
    23:00 -4°C° 0.2 mm 5 mps 736 mmHg 92%
    Show more